LOT267 EPWA-EHAM

Flight info

Callsign LOT267
Flight time 1h 40m
Altitude 32000
Route LOLS7G LOLSI DCT DIBLO DCT INDIG DCT SUBIX DCT HLZ NORK2A ART2X
Aircraft B38M/M-SDE1FGHILORVWXY/HB1

Departure

Time 2026-05-06 09:57
Airport Warsaw Chopin Airport (EPWA)

Arrival

Time 2026-05-06 11:37
Airport Amsterdam Airport Schiphol (EHAM)
Time Latitude Longitude Altitude Speed Heading
2026-05-06 09:40 52.17511 20.96933 354 ft 0 kts 243°
2026-05-06 09:45 52.17512 20.96937 354 ft 2 kts 243°
2026-05-06 09:46 52.17520 20.96960 361 ft 2 kts 243°
2026-05-06 09:46 52.17527 20.96984 360 ft 2 kts 242°
2026-05-06 09:46 52.17533 20.97008 359 ft 2 kts 275°
2026-05-06 09:46 52.17525 20.97030 362 ft 2 kts 335°
2026-05-06 09:47 52.17515 20.97037 362 ft 0 kts 331°
2026-05-06 09:51 52.17519 20.97034 362 ft 2 kts 331°
2026-05-06 09:51 52.17542 20.97013 362 ft 5 kts 331°
2026-05-06 09:51 52.17580 20.96980 355 ft 7 kts 332°
2026-05-06 09:51 52.17617 20.96943 360 ft 7 kts 311°
2026-05-06 09:52 52.17613 20.96859 356 ft 9 kts 240°
2026-05-06 09:52 52.17576 20.96765 354 ft 11 kts 238°
2026-05-06 09:52 52.17531 20.96639 357 ft 14 kts 240°
2026-05-06 09:52 52.17468 20.96509 361 ft 15 kts 245°
2026-05-06 09:53 52.17400 20.96401 358 ft 14 kts 174°
2026-05-06 09:53 52.17304 20.96473 357 ft 18 kts 152°
2026-05-06 09:53 52.17175 20.96586 362 ft 23 kts 151°
2026-05-06 09:53 52.17033 20.96712 362 ft 24 kts 154°
2026-05-06 09:54 52.16883 20.96842 361 ft 25 kts 152°
2026-05-06 09:54 52.16727 20.96977 354 ft 26 kts 152°
2026-05-06 09:54 52.16622 20.97201 356 ft 26 kts 113°
2026-05-06 09:54 52.16550 20.97460 356 ft 25 kts 115°
2026-05-06 09:55 52.16475 20.97722 354 ft 26 kts 114°
2026-05-06 09:55 52.16398 20.97995 360 ft 27 kts 114°
2026-05-06 09:55 52.16318 20.98278 359 ft 27 kts 114°
2026-05-06 09:55 52.16244 20.98470 355 ft 14 kts 164°
2026-05-06 09:56 52.16169 20.98427 354 ft 12 kts 202°
2026-05-06 09:56 52.16118 20.98356 359 ft 9 kts 278°
2026-05-06 09:56 52.16140 20.98261 355 ft 21 kts 293°
2026-05-06 09:56 52.16326 20.97593 353 ft 107 kts 294°
2026-05-06 09:57 52.16725 20.96108 373 ft 174 kts 288°
2026-05-06 09:57 52.17229 20.94274 1092 ft 187 kts 292°
2026-05-06 09:57 52.17787 20.92344 2027 ft 184 kts 288°
2026-05-06 09:57 52.18284 20.90291 2497 ft 208 kts 281°
2026-05-06 09:58 52.18476 20.87872 2938 ft 228 kts 262°
2026-05-06 09:58 52.18216 20.85463 3527 ft 242 kts 256°
2026-05-06 09:58 52.18160 20.82675 4380 ft 253 kts 277°
2026-05-06 09:58 52.18528 20.79825 5293 ft 260 kts 278°
2026-05-06 09:59 52.18903 20.76929 6242 ft 263 kts 279°
2026-05-06 09:59 52.19295 20.73986 7105 ft 268 kts 279°
2026-05-06 09:59 52.19584 20.70979 8001 ft 267 kts 264°
2026-05-06 09:59 52.19162 20.68076 8940 ft 265 kts 249°
2026-05-06 10:00 52.18569 20.65222 9859 ft 266 kts 249°
2026-05-06 10:00 52.17952 20.62306 10394 ft 281 kts 249°
2026-05-06 10:00 52.17282 20.59196 10750 ft 301 kts 249°
2026-05-06 10:00 52.16562 20.55905 11198 ft 315 kts 249°
2026-05-06 10:01 52.15808 20.52480 11756 ft 325 kts 249°
2026-05-06 10:01 52.15399 20.48955 12470 ft 332 kts 267°
2026-05-06 10:01 52.15523 20.45221 13190 ft 337 kts 270°
2026-05-06 10:01 52.15656 20.41458 13877 ft 341 kts 270°
2026-05-06 10:02 52.15804 20.37571 14586 ft 346 kts 270°
2026-05-06 10:02 52.15956 20.33701 15253 ft 349 kts 270°
2026-05-06 10:02 52.16113 20.29782 15943 ft 352 kts 270°
2026-05-06 10:02 52.16270 20.25814 16556 ft 356 kts 271°
2026-05-06 10:03 52.16430 20.21778 17217 ft 359 kts 270°
2026-05-06 10:03 52.16589 20.17747 17827 ft 363 kts 270°
2026-05-06 10:03 52.16747 20.13690 18321 ft 366 kts 271°
2026-05-06 10:03 52.16899 20.09763 18873 ft 367 kts 271°
2026-05-06 10:04 52.17048 20.05861 19394 ft 371 kts 270°
2026-05-06 10:04 52.17196 20.01970 19819 ft 373 kts 270°
2026-05-06 10:04 52.17345 19.97994 20282 ft 374 kts 270°
2026-05-06 10:04 52.17504 19.93745 20746 ft 377 kts 270°
2026-05-06 10:05 52.17661 19.89523 21229 ft 378 kts 270°
2026-05-06 10:05 52.17588 19.85310 21688 ft 377 kts 259°
2026-05-06 10:05 52.17200 19.81084 22152 ft 380 kts 260°
2026-05-06 10:05 52.16838 19.76924 22615 ft 382 kts 260°
2026-05-06 10:06 52.16474 19.72819 23098 ft 384 kts 260°
2026-05-06 10:06 52.16088 19.68511 23539 ft 386 kts 260°
2026-05-06 10:06 52.15696 19.64163 23967 ft 388 kts 259°
2026-05-06 10:06 52.15303 19.59825 24409 ft 390 kts 259°
2026-05-06 10:07 52.14905 19.55438 24861 ft 392 kts 259°
2026-05-06 10:07 52.14505 19.51054 25301 ft 393 kts 259°
2026-05-06 10:07 52.14099 19.46627 25732 ft 395 kts 259°
2026-05-06 10:07 52.13701 19.42296 26151 ft 397 kts 258°
2026-05-06 10:08 52.13304 19.38001 26547 ft 399 kts 258°
2026-05-06 10:08 52.12890 19.33530 26914 ft 402 kts 258°
2026-05-06 10:08 52.12472 19.29052 27301 ft 404 kts 258°
2026-05-06 10:08 52.12056 19.24623 27704 ft 406 kts 258°
2026-05-06 10:09 52.11647 19.20275 28091 ft 407 kts 258°
2026-05-06 10:09 52.11223 19.15788 28470 ft 409 kts 258°
2026-05-06 10:09 52.10820 19.11540 28835 ft 411 kts 257°
2026-05-06 10:09 52.10412 19.07249 29172 ft 413 kts 257°
2026-05-06 10:10 52.09972 19.02644 29546 ft 414 kts 257°
2026-05-06 10:10 52.09529 18.98030 29914 ft 416 kts 257°
2026-05-06 10:10 52.09076 18.93342 30224 ft 417 kts 257°
2026-05-06 10:10 52.08629 18.88723 30512 ft 419 kts 257°
2026-05-06 10:11 52.08174 18.84042 30822 ft 420 kts 257°
2026-05-06 10:11 52.07715 18.79343 31213 ft 419 kts 257°
2026-05-06 10:11 52.07255 18.74657 31597 ft 419 kts 257°
2026-05-06 10:11 52.06796 18.69996 31953 ft 418 kts 257°
2026-05-06 10:12 52.06334 18.65323 32345 ft 418 kts 257°
2026-05-06 10:12 52.05884 18.60801 32717 ft 417 kts 257°
2026-05-06 10:12 52.05420 18.56145 33087 ft 416 kts 256°
2026-05-06 10:12 52.04958 18.51537 33439 ft 416 kts 256°
2026-05-06 10:13 52.04497 18.46955 33809 ft 415 kts 256°
2026-05-06 10:13 52.04032 18.42339 34136 ft 415 kts 256°
2026-05-06 10:13 52.03562 18.37705 34437 ft 414 kts 256°
2026-05-06 10:13 52.03091 18.33080 34714 ft 414 kts 256°
2026-05-06 10:14 52.02619 18.28467 34943 ft 416 kts 257°
2026-05-06 10:14 52.02143 18.23823 35180 ft 416 kts 257°
2026-05-06 10:14 52.01666 18.19195 35410 ft 417 kts 257°
2026-05-06 10:14 52.01184 18.14537 35634 ft 418 kts 257°
2026-05-06 10:15 52.00702 18.09886 35756 ft 420 kts 257°
2026-05-06 10:15 52.00217 18.05228 35754 ft 419 kts 257°
2026-05-06 10:15 51.99902 18.00579 35738 ft 422 kts 268°
2026-05-06 10:15 52.00307 17.95824 35765 ft 427 kts 276°
2026-05-06 10:16 52.01430 17.86315 35766 ft 429 kts 276°
2026-05-06 10:16 52.02608 17.76792 35747 ft 430 kts 276°
2026-05-06 10:17 52.03794 17.67290 35752 ft 430 kts 276°
2026-05-06 10:17 52.04978 17.57760 35748 ft 430 kts 276°
2026-05-06 10:18 52.06154 17.48227 35744 ft 430 kts 276°
2026-05-06 10:18 52.07313 17.38775 35765 ft 431 kts 276°
2026-05-06 10:19 52.08458 17.29361 35757 ft 433 kts 276°
2026-05-06 10:19 52.09597 17.19927 35738 ft 433 kts 276°
2026-05-06 10:20 52.10721 17.10559 35748 ft 433 kts 276°
2026-05-06 10:20 52.11824 17.01292 35755 ft 433 kts 276°
2026-05-06 10:21 52.12921 16.92014 35759 ft 433 kts 276°
2026-05-06 10:21 52.14025 16.82612 35753 ft 436 kts 276°
2026-05-06 10:22 52.15112 16.73280 35743 ft 436 kts 276°
2026-05-06 10:22 52.16198 16.63899 35744 ft 436 kts 276°
2026-05-06 10:23 52.17269 16.54565 35739 ft 436 kts 276°
2026-05-06 10:23 52.18335 16.45221 35772 ft 436 kts 276°
2026-05-06 10:24 52.19393 16.35865 35731 ft 438 kts 276°
2026-05-06 10:24 52.20471 16.26266 35733 ft 438 kts 276°
2026-05-06 10:25 52.21526 16.16807 35726 ft 438 kts 276°
2026-05-06 10:25 52.22564 16.07413 35729 ft 438 kts 276°
2026-05-06 10:26 52.23607 15.97913 35748 ft 438 kts 276°
2026-05-06 10:26 52.24631 15.88512 35745 ft 437 kts 276°
2026-05-06 10:27 52.25655 15.79028 35745 ft 437 kts 276°
2026-05-06 10:27 52.26657 15.69680 35742 ft 437 kts 276°
2026-05-06 10:28 52.27669 15.60168 35742 ft 437 kts 276°
2026-05-06 10:28 52.28651 15.50864 35733 ft 437 kts 276°
2026-05-06 10:29 52.29650 15.41322 35737 ft 438 kts 276°
2026-05-06 10:29 52.30641 15.31776 35734 ft 438 kts 276°
2026-05-06 10:30 52.31596 15.22497 35735 ft 438 kts 276°
2026-05-06 10:30 52.32560 15.13058 35740 ft 438 kts 275°
2026-05-06 10:31 52.33503 15.03751 35739 ft 438 kts 275°
2026-05-06 10:31 52.34445 14.94376 35745 ft 437 kts 275°
2026-05-06 10:32 52.35360 14.85213 35746 ft 437 kts 275°
2026-05-06 10:32 52.36237 14.76374 35748 ft 437 kts 275°
2026-05-06 10:33 52.37153 14.67078 35748 ft 437 kts 275°
2026-05-06 10:33 52.37982 14.57573 35739 ft 433 kts 268°
2026-05-06 10:34 52.38087 14.48019 35752 ft 433 kts 268°
2026-05-06 10:34 52.38190 14.38453 35760 ft 433 kts 267°
2026-05-06 10:35 52.38284 14.28677 35752 ft 433 kts 267°
2026-05-06 10:35 52.38354 14.20733 35761 ft 432 kts 267°
2026-05-06 10:36 52.38432 14.11044 35761 ft 432 kts 267°
2026-05-06 10:36 52.38501 14.01605 35782 ft 431 kts 267°
2026-05-06 10:37 52.38563 13.92056 35776 ft 433 kts 267°
2026-05-06 10:37 52.38616 13.82676 35769 ft 433 kts 267°
2026-05-06 10:38 52.38664 13.72944 35777 ft 433 kts 267°
2026-05-06 10:38 52.38703 13.63224 35775 ft 433 kts 267°
2026-05-06 10:39 52.38735 13.53533 35774 ft 433 kts 267°
2026-05-06 10:39 52.38758 13.44090 35779 ft 434 kts 267°
2026-05-06 10:40 52.38773 13.34447 35775 ft 435 kts 267°
2026-05-06 10:40 52.38781 13.24737 35776 ft 435 kts 267°
2026-05-06 10:41 52.38781 13.14978 35779 ft 435 kts 267°
2026-05-06 10:41 52.38773 13.05352 35783 ft 434 kts 267°
2026-05-06 10:42 52.38758 12.95826 35786 ft 435 kts 267°
2026-05-06 10:42 52.38735 12.86483 35794 ft 436 kts 267°
2026-05-06 10:43 52.38704 12.77268 35784 ft 436 kts 266°
2026-05-06 10:44 52.38644 12.63006 35787 ft 436 kts 266°
2026-05-06 10:44 52.38596 12.53617 35801 ft 436 kts 266°
2026-05-06 10:45 52.38541 12.44558 35800 ft 436 kts 266°
2026-05-06 10:45 52.38476 12.34867 35798 ft 437 kts 266°
2026-05-06 10:46 52.38401 12.25012 35798 ft 437 kts 266°
2026-05-06 10:46 52.38319 12.15349 35801 ft 437 kts 266°
2026-05-06 10:47 52.38230 12.05709 35795 ft 436 kts 266°
2026-05-06 10:47 52.38134 11.96168 35815 ft 436 kts 266°
2026-05-06 10:48 52.38029 11.86528 35807 ft 438 kts 266°
2026-05-06 10:48 52.37916 11.76787 35804 ft 438 kts 266°
2026-05-06 10:49 52.37794 11.67035 35800 ft 438 kts 266°
2026-05-06 10:49 52.37662 11.57171 35805 ft 438 kts 266°
2026-05-06 10:50 52.37525 11.47519 35806 ft 438 kts 266°
2026-05-06 10:50 52.37381 11.37871 35810 ft 439 kts 266°
2026-05-06 10:51 52.37230 11.28308 35799 ft 439 kts 265°
2026-05-06 10:51 52.37071 11.18693 35805 ft 440 kts 265°
2026-05-06 10:52 52.36903 11.08959 35811 ft 440 kts 265°
2026-05-06 10:52 52.36734 10.99465 35818 ft 439 kts 265°
2026-05-06 10:53 52.36552 10.89713 35814 ft 440 kts 265°
2026-05-06 10:53 52.36359 10.80014 35795 ft 441 kts 265°
2026-05-06 10:54 52.36122 10.70175 35804 ft 441 kts 265°
2026-05-06 10:54 52.35883 10.60151 35800 ft 441 kts 265°
2026-05-06 10:55 52.35637 10.50123 35800 ft 441 kts 265°
2026-05-06 10:55 52.35383 10.40123 35822 ft 442 kts 265°
2026-05-06 10:56 52.35121 10.30122 35810 ft 442 kts 264°
2026-05-06 10:56 52.34849 10.20076 35828 ft 442 kts 264°
2026-05-06 10:57 52.34566 10.09963 35820 ft 442 kts 264°
2026-05-06 10:57 52.34281 10.00077 35817 ft 442 kts 264°
2026-05-06 10:58 52.33990 9.90217 35831 ft 442 kts 264°
2026-05-06 10:58 52.33685 9.80217 35830 ft 443 kts 264°
2026-05-06 10:59 52.33369 9.70154 35826 ft 443 kts 264°
2026-05-06 10:59 52.33046 9.60096 35825 ft 443 kts 264°
2026-05-06 11:00 52.32715 9.50065 35824 ft 443 kts 264°
2026-05-06 11:00 52.32376 9.40059 35825 ft 443 kts 264°
2026-05-06 11:01 52.32025 9.29968 35805 ft 443 kts 264°
2026-05-06 11:01 52.31669 9.19965 35802 ft 443 kts 264°
2026-05-06 11:02 52.31304 9.09940 35807 ft 443 kts 264°
2026-05-06 11:02 52.30930 8.99897 35803 ft 443 kts 264°
2026-05-06 11:03 52.30546 8.89838 35813 ft 443 kts 264°
2026-05-06 11:03 52.30153 8.79775 35819 ft 444 kts 264°
2026-05-06 11:04 52.29755 8.69769 35805 ft 444 kts 264°
2026-05-06 11:04 52.29345 8.59703 35811 ft 444 kts 264°
2026-05-06 11:05 52.28926 8.49617 35818 ft 444 kts 264°
2026-05-06 11:05 52.28500 8.39579 35846 ft 444 kts 264°
2026-05-06 11:06 52.28064 8.29521 35832 ft 445 kts 264°
2026-05-06 11:06 52.27618 8.19415 35829 ft 445 kts 263°
2026-05-06 11:07 52.27165 8.09335 35831 ft 445 kts 263°
2026-05-06 11:07 52.26702 7.99259 35830 ft 445 kts 263°
2026-05-06 11:08 52.26235 7.89252 35837 ft 445 kts 263°
2026-05-06 11:08 52.25999 7.84246 35598 ft 440 kts 263°
2026-05-06 11:08 52.25760 7.79261 34883 ft 441 kts 263°
2026-05-06 11:08 52.25519 7.74255 34019 ft 447 kts 264°
2026-05-06 11:09 52.25271 7.69162 33070 ft 451 kts 264°
2026-05-06 11:09 52.25021 7.64074 32389 ft 449 kts 264°
2026-05-06 11:09 52.24771 7.59013 31946 ft 443 kts 264°
2026-05-06 11:09 52.24523 7.54053 31537 ft 437 kts 264°
2026-05-06 11:10 52.24275 7.49126 31039 ft 433 kts 264°
2026-05-06 11:10 52.24026 7.44217 30454 ft 433 kts 264°
2026-05-06 11:10 52.23775 7.39331 29862 ft 433 kts 264°
2026-05-06 11:10 52.23523 7.34430 29229 ft 432 kts 264°
2026-05-06 11:11 52.23272 7.29580 28694 ft 428 kts 264°
2026-05-06 11:11 52.23020 7.24749 28173 ft 424 kts 264°
2026-05-06 11:11 52.22770 7.19985 27655 ft 421 kts 264°
2026-05-06 11:11 52.22524 7.15320 27154 ft 418 kts 264°
2026-05-06 11:12 52.22279 7.10731 26664 ft 415 kts 264°
2026-05-06 11:12 52.22037 7.06208 26175 ft 412 kts 264°
2026-05-06 11:12 52.21935 7.01658 25645 ft 410 kts 275°
2026-05-06 11:12 52.22546 6.97293 25181 ft 407 kts 291°
2026-05-06 11:13 52.23867 6.93300 24840 ft 401 kts 305°
2026-05-06 11:13 52.25492 6.89866 24455 ft 397 kts 307°
2026-05-06 11:13 52.27181 6.86414 23994 ft 396 kts 308°
2026-05-06 11:13 52.28906 6.82934 23555 ft 394 kts 308°
2026-05-06 11:14 52.30605 6.79420 22869 ft 395 kts 306°
2026-05-06 11:14 52.32297 6.76033 22759 ft 387 kts 309°
2026-05-06 11:14 52.34021 6.72636 22282 ft 389 kts 308°
2026-05-06 11:14 52.35753 6.69174 21374 ft 398 kts 308°
2026-05-06 11:15 52.37519 6.65621 20510 ft 405 kts 308°
2026-05-06 11:15 52.39302 6.62026 19676 ft 410 kts 307°
2026-05-06 11:15 52.41112 6.58373 19001 ft 412 kts 307°
2026-05-06 11:15 52.42874 6.54811 18558 ft 396 kts 307°
2026-05-06 11:16 52.44546 6.51425 18124 ft 382 kts 308°
2026-05-06 11:16 52.46040 6.48062 17606 ft 370 kts 296°
2026-05-06 11:16 52.46831 6.44126 17192 ft 364 kts 277°
2026-05-06 11:16 52.47114 6.40026 16820 ft 359 kts 275°
2026-05-06 11:17 52.47358 6.36021 16478 ft 354 kts 275°
2026-05-06 11:17 52.47583 6.32019 16158 ft 350 kts 274°
2026-05-06 11:17 52.47793 6.28066 15792 ft 346 kts 274°
2026-05-06 11:17 52.47992 6.24154 15418 ft 343 kts 274°
2026-05-06 11:18 52.48178 6.20410 15056 ft 341 kts 275°
2026-05-06 11:18 52.48360 6.16688 14713 ft 338 kts 275°
2026-05-06 11:18 52.48544 6.12917 14353 ft 336 kts 275°
2026-05-06 11:18 52.48725 6.09148 13990 ft 334 kts 275°
2026-05-06 11:19 52.48846 6.06629 13752 ft 333 kts 275°
2026-05-06 11:19 52.49023 6.02902 13347 ft 331 kts 275°
2026-05-06 11:19 52.49200 5.99160 12912 ft 330 kts 275°
2026-05-06 11:19 52.49375 5.95432 12519 ft 329 kts 275°
2026-05-06 11:20 52.49600 5.90607 12025 ft 326 kts 275°
2026-05-06 11:20 52.49715 5.88152 11775 ft 325 kts 275°
2026-05-06 11:20 52.49881 5.84557 11446 ft 321 kts 275°
2026-05-06 11:20 52.50045 5.80985 11095 ft 319 kts 275°
2026-05-06 11:21 52.50205 5.77476 10724 ft 318 kts 275°
2026-05-06 11:21 52.50360 5.74050 10513 ft 311 kts 275°
2026-05-06 11:21 52.50507 5.70785 10373 ft 301 kts 275°
2026-05-06 11:21 52.50656 5.67446 10228 ft 293 kts 274°
2026-05-06 11:22 52.50806 5.64119 9906 ft 294 kts 275°
2026-05-06 11:22 52.50951 5.60813 9519 ft 296 kts 275°
2026-05-06 11:22 52.50955 5.57417 9101 ft 297 kts 259°
2026-05-06 11:22 52.50213 5.54435 8718 ft 298 kts 238°
2026-05-06 11:23 52.49174 5.51639 8354 ft 298 kts 239°
2026-05-06 11:23 52.48097 5.48699 7953 ft 299 kts 238°
2026-05-06 11:23 52.46975 5.45818 7552 ft 300 kts 238°
2026-05-06 11:23 52.45855 5.43005 7164 ft 302 kts 238°
2026-05-06 11:24 52.44727 5.40164 6785 ft 303 kts 237°
2026-05-06 11:24 52.43588 5.37254 6399 ft 303 kts 238°
2026-05-06 11:24 52.42537 5.34581 6036 ft 305 kts 238°
2026-05-06 11:24 52.41386 5.31654 5613 ft 306 kts 237°
2026-05-06 11:25 52.40227 5.28716 5205 ft 306 kts 238°
2026-05-06 11:25 52.39074 5.25858 4888 ft 294 kts 237°
2026-05-06 11:25 52.37960 5.23118 4704 ft 286 kts 237°
2026-05-06 11:25 52.36851 5.20410 4575 ft 286 kts 237°
2026-05-06 11:26 52.35741 5.17694 4435 ft 286 kts 238°
2026-05-06 11:26 52.34648 5.15024 4377 ft 286 kts 237°
2026-05-06 11:26 52.33546 5.12323 4428 ft 286 kts 237°
2026-05-06 11:26 52.32448 5.09624 4475 ft 284 kts 238°
2026-05-06 11:27 52.31345 5.06938 4482 ft 286 kts 237°
2026-05-06 11:27 52.30240 5.04234 4484 ft 286 kts 237°
2026-05-06 11:27 52.29125 5.01519 4433 ft 288 kts 237°
2026-05-06 11:27 52.28021 4.98817 4250 ft 285 kts 237°
2026-05-06 11:28 52.26922 4.96128 4058 ft 284 kts 237°
2026-05-06 11:28 52.25827 4.93446 3781 ft 284 kts 237°
2026-05-06 11:28 52.24734 4.90772 3546 ft 283 kts 237°
2026-05-06 11:28 52.23645 4.88090 3296 ft 284 kts 237°
2026-05-06 11:29 52.22553 4.85412 3063 ft 283 kts 237°
2026-05-06 11:29 52.21466 4.82763 2984 ft 280 kts 237°
2026-05-06 11:29 52.20378 4.80117 2915 ft 281 kts 237°
2026-05-06 11:29 52.19294 4.77462 2694 ft 281 kts 237°
2026-05-06 11:30 52.18215 4.74825 2474 ft 280 kts 237°
2026-05-06 11:30 52.17117 4.72193 2248 ft 279 kts 237°
2026-05-06 11:30 52.16038 4.69620 2056 ft 277 kts 237°
2026-05-06 11:30 52.14960 4.67041 1970 ft 275 kts 237°
2026-05-06 11:31 52.13949 4.64412 1969 ft 273 kts 250°
2026-05-06 11:31 52.13631 4.61511 1985 ft 252 kts 279°
2026-05-06 11:31 52.14160 4.58982 2000 ft 226 kts 309°
2026-05-06 11:31 52.15163 4.57251 2008 ft 197 kts 321°
2026-05-06 11:32 52.16128 4.55847 1991 ft 179 kts 322°
2026-05-06 11:32 52.17051 4.54505 1999 ft 178 kts 322°
2026-05-06 11:32 52.17972 4.53158 2056 ft 178 kts 322°
2026-05-06 11:32 52.18934 4.51994 2002 ft 167 kts 343°
2026-05-06 11:33 52.20022 4.52023 1871 ft 157 kts 27°
2026-05-06 11:33 52.20890 4.53079 2026 ft 162 kts 41°
2026-05-06 11:33 52.21736 4.54347 2077 ft 168 kts 43°
2026-05-06 11:33 52.22353 4.55965 1910 ft 169 kts 60°
2026-05-06 11:34 52.22969 4.57590 1833 ft 169 kts 53°
2026-05-06 11:34 52.23576 4.59222 1883 ft 170 kts 64°
2026-05-06 11:34 52.24108 4.60932 1960 ft 169 kts 57°
2026-05-06 11:34 52.24687 4.62510 1931 ft 155 kts 57°
2026-05-06 11:35 52.25252 4.64042 1491 ft 161 kts 57°
2026-05-06 11:35 52.25804 4.65610 1093 ft 152 kts 58°
2026-05-06 11:35 52.26308 4.66998 943 ft 135 kts 54°
2026-05-06 11:35 52.26809 4.68257 734 ft 131 kts 53°
2026-05-06 11:36 52.27286 4.69506 474 ft 128 kts 56°
2026-05-06 11:36 52.27760 4.70740 394 ft 127 kts 56°
2026-05-06 11:36 52.28230 4.71953 263 ft 127 kts 56°
2026-05-06 11:36 52.28701 4.73184 113 ft 128 kts 57°
2026-05-06 11:37 52.29166 4.74406 6 ft 120 kts 54°
2026-05-06 11:37 52.29513 4.75290 -1 ft 59 kts 58°
2026-05-06 11:37 52.29706 4.75731 -1 ft 33 kts 36°
2026-05-06 11:37 52.29858 4.75868 -2 ft 12 kts 27°
2026-05-06 11:38 52.29878 4.75886 -1 ft 0 kts 27°
2026-05-06 11:38 52.29884 4.75891 0 ft 5 kts 27°
2026-05-06 11:38 52.29944 4.75939 0 ft 12 kts 25°
2026-05-06 11:39 52.30021 4.75944 0 ft 12 kts 336°
2026-05-06 11:39 52.30088 4.75983 0 ft 11 kts 57°
2026-05-06 11:39 52.30131 4.76096 0 ft 12 kts 59°
2026-05-06 11:39 52.30179 4.76222 0 ft 14 kts 57°
2026-05-06 11:40 52.30236 4.76364 0 ft 16 kts 57°
2026-05-06 11:40 52.30299 4.76519 0 ft 8 kts 43°
2026-05-06 11:40 52.30353 4.76519 0 ft 9 kts 336°
2026-05-06 11:40 52.30365 4.76463 0 ft 2 kts 221°
2026-05-06 11:41 52.30350 4.76442 0 ft 4 kts 227°
2026-05-06 11:41 52.30345 4.76432 0 ft 0 kts 234°